Rifle, CO

1:16 PM MST on February 08, 2016 (GMT -0700)
Garfield County Regional

Weather History for KRIL - April, 2014

Change the Weather History Date:

Sunday, April 13, 2014

  Actual Average Record
Temperature  
Mean Temperature 37 °F 47 °F  
Max Temperature 46 °F 62 °F 80 °F (1988)
Min Temperature 27 °F 33 °F 15 °F (1997)
Degree Days  
Heating Degree Days 28 18  
Month to date heating degree days 248 252  
Since 1 July heating degree days 6184 6036  
Cooling Degree Days 0 0  
Month to date cooling degree days 0 0  
Year to date cooling degree days 0 0  
Moisture  
Dew Point 33 °F    
Average Humidity 74    
Maximum Humidity 92    
Minimum Humidity 56    
Precipitation  
Precipitation 0.43 in 0.05 in 0.43 in (2014)
Month to date precipitation 0.56 0.52  
Year to date precipitation 2.74 3.29  
Sea Level Pressure  
Sea Level Pressure 29.77 in    
Wind  
Wind Speed 14 mph (WNW)    
Max Wind Speed 29 mph    
Max Gust Speed 38 mph    
Visibility 9 miles    
Events Rain    
T = Trace of Precipitation, MM = Missing Value Source: NWS Daily Summary

Daily Weather History Graph

Daily Weather History Graph

Search for Another Location

Airport or City:

Trip Planner

Search our weather history database for the weather conditions in past years. The results will help you decide how hot, cold, wet, or windy it might be!

Date:

Astronomy

Apr. 13, 2014 Rise Set
Actual Time 6:36 AM MDT 7:46 PM MDT
Civil Twilight 6:08 AM MDT 8:14 PM MDT
Nautical Twilight 5:35 AM MDT 8:47 PM MDT
Astronomical Twilight 5:01 AM MDT 9:22 PM MDT
Moon 6:28 PM MDT (4/13) 5:36 AM MDT (4/13)
Length of Visible Light 14h 05m
Length of Day
13h 10m
Waxing Gibbous, 97% of the Moon is Illuminated
Apr 13
Waxing Gibbous
Apr 15
Full
Apr 22
Last Quarter
Apr 29
New
May 6
First Quarter

Hourly Weather History & Observations

Time (MDT) Temp. Windchill Dew Point Humidity Pressure Visibility Wind Dir Wind Speed Gust Speed Precip Events Conditions
12:53 AM 45.0 °F 41.8 °F 42.1 °F 90% 29.64 in 10.0 mi SSE 5.8 mph - 0.00 in   Clear
1:53 AM 44.1 °F 42.5 °F 41.0 °F 89% 29.62 in 10.0 mi East 3.5 mph - N/A   Overcast
2:53 AM 45.0 °F 43.5 °F 42.1 °F 90% 29.60 in 10.0 mi WSW 3.5 mph - N/A   Overcast
3:53 AM 46.0 °F 41.9 °F 39.9 °F 79% 29.59 in 10.0 mi NW 8.1 mph - N/A   Overcast
4:53 AM 43.0 °F 36.8 °F 37.9 °F 82% 29.61 in 7.0 mi WNW 11.5 mph - 0.02 in Rain Light Rain
5:53 AM 42.1 °F 35.7 °F 39.0 °F 89% 29.59 in 10.0 mi South 11.5 mph - 0.04 in   Overcast
6:53 AM 42.1 °F 40.2 °F 37.9 °F 85% 29.59 in 10.0 mi South 3.5 mph - 0.01 in   Overcast
7:53 AM 44.1 °F 41.5 °F 39.9 °F 85% 29.58 in 10.0 mi NNE 4.6 mph - N/A   Overcast
8:31 AM 43.0 °F 37.2 °F 39.0 °F 86% 29.71 in 10.0 mi WNW 10.4 mph - 0.00 in Rain Light Rain
8:53 AM 39.9 °F 31.8 °F 37.0 °F 89% 29.65 in 3.0 mi WSW 15.0 mph - 0.08 in Rain Rain
9:53 AM 39.0 °F 33.4 °F 36.0 °F 89% 29.67 in 8.0 mi WNW 8.1 mph - 0.17 in Rain Light Rain
10:01 AM 39.0 °F 31.8 °F 36.0 °F 89% 29.72 in 8.0 mi West 11.5 mph - 0.00 in Rain Light Rain
10:53 AM 37.9 °F 29.6 °F 36.0 °F 93% 29.70 in 10.0 mi WSW 13.8 mph - 0.03 in   Overcast
11:08 AM 37.9 °F 29.6 °F 36.0 °F 93% 29.76 in 10.0 mi WSW 13.8 mph - 0.00 in Rain Light Rain
11:48 AM 39.2 °F 33.0 °F 37.4 °F 93% 29.75 in 10.0 mi WSW 9.2 mph - 0.00 in   Overcast
11:53 AM 39.9 °F 33.9 °F 37.9 °F 93% 29.70 in 10.0 mi West 9.2 mph - 0.00 in   Overcast
12:06 PM 41.0 °F 34.7 °F 37.9 °F 89% 29.75 in 10.0 mi West 10.4 mph - N/A   Overcast
12:16 PM 42.1 °F 36.6 °F 39.0 °F 89% 29.75 in 10.0 mi West 9.2 mph - N/A   Mostly Cloudy
12:53 PM 43.0 °F 39.5 °F 37.9 °F 82% 29.69 in 10.0 mi WNW 5.8 mph - N/A   Overcast
1:05 PM 43.0 °F 37.2 °F 37.9 °F 82% 29.75 in 10.0 mi WNW 10.4 mph - N/A   Overcast
1:39 PM 44.1 °F 41.5 °F 37.0 °F 76% 29.76 in 10.0 mi North 4.6 mph - N/A   Overcast
1:53 PM 39.0 °F 31.4 °F 35.1 °F 86% 29.73 in 3.0 mi WNW 12.7 mph - 0.03 in Rain Rain
2:01 PM 37.9 °F 30.0 °F 34.0 °F 86% 29.78 in 2.0 mi WNW 12.7 mph - 0.02 in Rain Rain
2:10 PM 39.0 °F 30.6 °F 33.1 °F 79% 29.78 in 3.0 mi NW 15.0 mph 24.2 mph 0.04 in Rain Rain
2:53 PM 39.9 °F 30.2 °F 28.9 °F 65% 29.75 in 10.0 mi WNW 20.7 mph 31.1 mph 0.05 in   Overcast
3:53 PM 37.9 °F 28.2 °F 26.1 °F 62% 29.82 in 10.0 mi WNW 18.4 mph - N/A   Overcast
4:53 PM 37.0 °F 27.4 °F 24.1 °F 59% 29.86 in 10.0 mi WNW 17.3 mph 27.6 mph N/A   Overcast
6:53 PM 34.0 °F 22.7 °F 21.9 °F 61% 29.94 in 10.0 mi NW 19.6 mph 27.6 mph N/A   Overcast
7:53 PM 32.0 °F 20.1 °F 19.9 °F 61% 29.99 in 10.0 mi NW 19.6 mph 27.6 mph N/A   Scattered Clouds
8:53 PM 30.9 °F 20.7 °F 19.9 °F 64% 30.06 in 10.0 mi WNW 13.8 mph 21.9 mph N/A   Clear
9:53 PM 30.0 °F 17.5 °F 18.0 °F 61% 30.11 in 10.0 mi WNW 19.6 mph - N/A   Scattered Clouds
10:53 PM 28.0 °F 15.7 °F 16.0 °F 61% 30.15 in 10.0 mi WNW 17.3 mph - N/A   Clear
11:53 PM 27.0 °F 12.2 °F 15.1 °F 61% 30.17 in 10.0 mi NW 24.2 mph 31.1 mph N/A   Mostly Cloudy